Terminal Aerodrome Forecast
Issued by NWS

Home | Current Version | Previous Version | Text Only | Print | Product List | Glossary On
Versions: 1 2 3 4 5 6 7 8 9 10 11 12 13 14 15 16 17 18 19 20 21 22 23 24 25 26 27 28 29 30 31 32
000
FTUS45 KGJT 251735
TAFMTJ
TAF
KMTJ 251735Z 2518/2618 02004KT P6SM SCT150
     FM251900 34006KT P6SM VCTS SCT090CB BKN130
      TEMPO 2520/2523 VRB20G30KT -TSRA FEW060 BKN090CB
     FM260100 15008KT P6SM VCTS SCT100CB BKN150
     FM260400 14007KT P6SM FEW120 BKN200
     FM261700 04005KT P6SM SCT100=

USA.gov is the U.S. government's official web portal to all federal, state and local government web resources and services.